CT1OY Oeiras PT current weather conditions

sailwx.info

Wind from 278 at 2 knots

Air temperature 11.7° C
Dewpoint 11.2° C

Last reported at 2015-Mar-02 22:07 UTC.
Time now 2015-Mar-02 23:13 UTC

Location: N 38°44' W 009°17'.
View on Google Maps.

See reports from other nearby stations

  
Tides and Currents Weather Stations Pressure Air Temp Water Temp Dewpoint Dewpoint Depression Visibility Wind Speed Wind Dir Waves Ship Positions
date/time (UTC)wind fromknots sea level pressurealtimeterstation pressurevisibilityair tempwater tempwave heightnotes
2015-Mar-02 22:07 278 2 11.7
2015-Mar-02 21:47 285 5 11.7
2015-Mar-02 21:27 319 1 11.7
2015-Mar-02 21:07 302 3 12.2
2015-Mar-02 20:47 294 1 12.2
2015-Mar-02 20:37 312 3 12.2
2015-Mar-02 19:47 277 5 12.2
2015-Mar-02 19:17 283 3 12.8
2015-Mar-02 18:57 283 6 13.3
2015-Mar-02 18:37 288 4 13.3
2015-Mar-02 18:07 257 15.0
2015-Mar-02 17:57 288 1 16.1
2015-Mar-02 17:47 001 16.1
2015-Mar-02 17:37 285 0 15.6
2015-Mar-02 17:27 121 15.0
2015-Mar-02 17:17 078 15.0
2015-Mar-02 17:07 127 15.0
2015-Mar-02 16:47 115 15.6
2015-Mar-02 16:27 091 16.1
2015-Mar-02 16:17 124 1 17.2
2015-Mar-02 16:07 301 17.2
2015-Mar-02 15:57 186 17.2
2015-Mar-02 15:47 303 17.2
2015-Mar-02 15:37 311 16.7
2015-Mar-02 15:27 246 16.7
2015-Mar-02 15:17 302 16.7
2015-Mar-02 15:07 041 16.7
2015-Mar-02 14:57 133 17.2
2015-Mar-02 14:47 113 16.7
2015-Mar-02 14:27 067 16.7
2015-Mar-02 14:17 001 16.7
2015-Mar-02 14:07 281 16.7
2015-Mar-02 13:57 346 0 16.7
2015-Mar-02 13:47 330 16.7
2015-Mar-02 13:37 316 16.7
2015-Mar-02 13:27 316 16.7
2015-Mar-02 13:17 348 16.1
2015-Mar-02 13:07 260 0 15.6
2015-Mar-02 12:57 348 1 15.0
2015-Mar-02 12:47 041 15.0
2015-Mar-02 12:37 294 15.0
2015-Mar-02 12:27 297 1 15.0
2015-Mar-02 12:07 004 15.0
2015-Mar-02 11:57 025 2 15.0
2015-Mar-02 11:47 044 0 14.4
2015-Mar-02 11:27 283 0 14.4
2015-Mar-02 11:17 306 0 14.4
2015-Mar-02 10:37 304 1 13.9
2015-Mar-02 10:07 293 0 13.9
2015-Mar-02 09:47 315 2 13.3
2015-Mar-02 09:27 279 0 13.3
2015-Mar-02 09:17 278 0 13.3
2015-Mar-02 08:57 261 12.8
2015-Mar-02 08:47 240 2 12.8
2015-Mar-02 08:17 286 1 12.2
2015-Mar-02 08:07 276 12.2
2015-Mar-02 07:57 258 0 12.2
2015-Mar-02 07:47 273 0 12.2
2015-Mar-02 07:37 286 0 12.2
2015-Mar-02 07:17 301 1 12.2
2015-Mar-02 06:47 291 12.2
2015-Mar-02 06:37 278 12.2
2015-Mar-02 06:27 324 12.2
2015-Mar-02 06:07 294 12.2
2015-Mar-02 05:57 288 12.2
2015-Mar-02 05:47 248 12.2
2015-Mar-02 05:27 250 12.2
2015-Mar-02 05:17 246 12.2
2015-Mar-02 05:07 307 12.2
2015-Mar-02 04:57 285 1 12.2
2015-Mar-02 04:37 288 0 12.2
2015-Mar-02 04:27 294 0 12.2
2015-Mar-02 04:17 266 12.2
2015-Mar-02 04:07 274 12.2
2015-Mar-02 03:57 266 12.2
2015-Mar-02 03:37 297 12.2
2015-Mar-02 03:27 283 1 12.2
2015-Mar-02 03:17 307 1 12.2
2015-Mar-02 03:07 280 1 12.2
2015-Mar-02 02:37 316 4 12.8
2015-Mar-02 02:17 288 12.8
2015-Mar-02 01:57 285 0 12.8
2015-Mar-02 01:47 297 1 12.8
2015-Mar-02 01:37 289 12.8
2015-Mar-02 01:27 255 0 12.8
2015-Mar-02 01:17 315 0 12.8
2015-Mar-02 01:07 278 12.8
2015-Mar-02 00:47 300 0 12.8
2015-Mar-02 00:37 314 1 12.8
2015-Mar-02 00:17 288 2 12.8
2015-Mar-02 00:07 289 0 12.8
2015-Mar-01 23:57 269 12.8
2015-Mar-01 23:47 264 12.8
2015-Mar-01 23:37 273 1 12.8
2015-Mar-01 23:27 266 12.8
2015-Mar-01 23:07 236 12.8
2015-Mar-01 22:57 255 0 12.8
2015-Mar-01 22:47 281 12.8
2015-Mar-01 22:37 259 12.8
2015-Mar-01 22:27 278 12.8
2015-Mar-01 22:17 264 12.8
2015-Mar-01 22:07 284 0 12.8
2015-Mar-01 21:57 266 0 12.8
2015-Mar-01 21:37 295 0 12.8
2015-Mar-01 21:17 280 12.8
2015-Mar-01 21:07 271 12.8
2015-Mar-01 20:57 266 12.8
2015-Mar-01 20:47 287 0 12.8
2015-Mar-01 20:37 271 12.8
2015-Mar-01 20:27 281 13.3
2015-Mar-01 20:17 274 0 13.3
2015-Mar-01 20:07 293 13.3
2015-Mar-01 19:57 347 0 13.3
2015-Mar-01 19:47 271 13.3
2015-Mar-01 19:17 332 13.3
2015-Mar-01 19:07 269 2 13.3
2015-Mar-01 18:47 274 13.3
2015-Mar-01 18:37 284 1 13.3
2015-Mar-01 18:27 319 13.3
2015-Mar-01 18:07 297 13.9
2015-Mar-01 17:57 297 13.9
2015-Mar-01 17:47 278 13.9
2015-Mar-01 16:47 269 14.4
2015-Mar-01 16:37 277 14.4
2015-Mar-01 16:27 305 15.0
2015-Mar-01 16:17 025 15.6
2015-Mar-01 16:07 318 0 16.1
2015-Mar-01 15:57 282 0 16.1
2015-Mar-01 15:47 009 16.1
2015-Mar-01 15:17 283 16.7
2015-Mar-01 15:07 300 0 16.1
2015-Mar-01 14:57 266 15.6
2015-Mar-01 14:47 239 15.0
2015-Mar-01 14:37 285 15.0
2015-Mar-01 14:27 284 5 15.0
2015-Mar-01 14:17 277 0 15.0
2015-Mar-01 13:47 272 0 15.6
2015-Mar-01 13:37 311 15.0
2015-Mar-01 13:27 340 15.0
2015-Mar-01 13:17 316 2 15.6
2015-Mar-01 12:57 300 15.6
2015-Mar-01 12:47 287 15.0
2015-Mar-01 12:27 278 1 15.6
2015-Mar-01 12:07 307 0 15.6
2015-Mar-01 11:37 266 15.0
2015-Mar-01 11:27 278 0 15.0
2015-Mar-01 11:17 009 14.4
2015-Mar-01 11:07 264 1 14.4
2015-Mar-01 10:57 269 6 14.4
2015-Mar-01 10:47 277 3 14.4
2015-Mar-01 10:37 276 1 13.9
2015-Mar-01 10:27 317 2 13.9
2015-Mar-01 10:17 266 2 13.3
2015-Mar-01 10:07 293 2 13.3
2015-Mar-01 09:57 285 2 13.3
2015-Mar-01 09:47 287 0 13.3
2015-Mar-01 09:27 291 1 12.8
2015-Mar-01 09:17 319 3 12.8
2015-Mar-01 09:07 266 1 12.8
2015-Mar-01 08:47 269 12.2
2015-Mar-01 08:37 260 0 12.2
2015-Mar-01 08:07 274 11.1
2015-Mar-01 07:57 302 11.1
2015-Mar-01 07:37 281 10.6
2015-Mar-01 07:27 293 2 10.0
2015-Mar-01 07:17 289 1 10.6
2015-Mar-01 07:07 302 1 10.6
2015-Mar-01 06:47 006 10.6
2015-Mar-01 06:37 354 10.6
2015-Mar-01 06:17 315 2 11.1
2015-Mar-01 05:57 329 1 10.6
2015-Mar-01 05:47 287 1 10.6
2015-Mar-01 05:37 253 10.6
2015-Mar-01 05:27 266 10.6
2015-Mar-01 05:07 266 11.1
2015-Mar-01 04:57 267 11.1
2015-Mar-01 04:47 255 1 11.1
2015-Mar-01 04:37 266 2 11.1
2015-Mar-01 04:27 270 0 11.1
2015-Mar-01 03:57 302 3 11.7
2015-Mar-01 03:47 270 2 11.7
2015-Mar-01 03:37 314 2 11.7
2015-Mar-01 03:27 291 1 11.7
2015-Mar-01 03:17 284 0 11.7
2015-Mar-01 03:07 296 4 11.7
2015-Mar-01 02:57 312 2 11.7
2015-Mar-01 02:47 340 2 11.7
2015-Mar-01 02:17 300 1 12.2
2015-Mar-01 01:57 338 0 11.7
2015-Mar-01 01:47 287 1 11.7
2015-Mar-01 01:17 308 4 11.7
2015-Mar-01 00:57 284 11.7
2015-Mar-01 00:47 271 11.7
2015-Mar-01 00:27 280 11.7
2015-Mar-01 00:17 266 11.7
2015-Mar-01 00:07 317 11.7
2015-Feb-28 23:57 273 11.7
2015-Feb-28 23:47 259 11.7
2015-Feb-28 23:37 274 0 11.1
2015-Feb-28 23:27 288 11.1